This demonstration page uses our WeatherBlox Daily Observations layout. Learn more.

Left ArrowRight Arrow

39.92423, -83.80882

Hourly Observations for November 18, 2020

Temp ( °F °C ) Dew Point ( °F °C ) Humidity (%) Winds ( mph kmh ) Pressure ( in mb ) Visibility ( mi km ) Precip ( " mm )
12:56 am 00:56 Clear 25 -3.9 22 -5.6 88 88 W 7 11 30.54 1034 10 16 N/A
1:56 am 01:56 Clear 24 -4.4 21 -6.1 88 88 W 6 9 30.56 1035 10 16 N/A
2:56 am 02:56 Clear 25 -3.9 22 -5.6 88 88 W 3 6 30.56 1035 10 16 N/A
3:56 am 03:56 Clear 23 -5 21 -6.1 92 92 W 5 7 30.59 1036 10 16 N/A
4:56 am 04:56 Clear 23 -5 21 -6.1 92 92 N N/A 30.60 1036 10 16 N/A
5:56 am 05:56 Cloudy 25 -3.9 24 -4.4 96 96 N N/A 30.62 1037 10 16 N/A
6:56 am 06:56 Cloudy 27 -2.8 26 -3.3 96 96 N N/A 30.63 1037 10 16 N/A
7:56 am 07:56 Cloudy 29 -1.7 26 -3.3 89 89 N N/A 30.64 1038 10 16 N/A
8:56 am 08:56 Cloudy 30 -1.1 26 -3.3 85 85 SSE 5 7 30.65 1038 10 16 N/A
9:56 am 09:56 Cloudy 33 0.6 24 -4.4 70 70 S 6 9 30.66 1038 10 16 N/A
10:56 am 10:56 Mostly Cloudy 37 2.8 24 -4.4 59 59 S 7 11 30.66 1038 10 16 N/A
11:56 am 11:56 Sunny 40 4.4 25 -3.9 55 55 SSW 7 11 30.64 1038 10 16 N/A
12:56 pm 12:56 Sunny 43 6.1 23 -5 45 45 S 9 15 30.60 1036 10 16 N/A
1:56 pm 13:56 Sunny 44 6.7 24 -4.4 45 45 SSW 7 11 30.58 1036 10 16 N/A
2:56 pm 14:56 Sunny 45 7.2 23 -5 42 42 S 10 17 30.55 1035 10 16 N/A
3:56 pm 15:56 Sunny 45 7.2 23 -5 42 42 S 8 13 30.54 1034 10 16 N/A
4:56 pm 16:56 Sunny 43 6.1 24 -4.4 47 47 S 7 11 30.53 1034 10 16 N/A
5:56 pm 17:56 Clear 39 3.9 25 -3.9 57 57 SSE 8 13 30.52 1034 10 16 N/A
6:56 pm 18:56 Clear 37 2.8 26 -3.3 65 65 SSE 8 13 30.51 1033 10 16 N/A
7:56 pm 19:56 Clear 37 2.8 26 -3.3 65 65 SSE 9 15 30.49 1033 10 16 N/A
8:56 pm 20:56 Clear 37 2.8 25 -3.9 62 62 SSE 9 15 30.46 1032 10 16 N/A
9:56 pm 21:56 Clear 38 3.3 24 -4.4 57 57 S 10 17 30.44 1031 10 16 N/A
10:56 pm 22:56 Clear 37 2.8 25 -3.9 62 62 S 9 15 30.42 1030 10 16 N/A
11:56 pm 23:56 Clear 37 2.8 24 -4.4 59 59 S 8 13 30.41 1030 10 16 N/A

Powered by AerisWeather